CZ-6A DEB

Satellite information

Favourite Embed

Satellite Type and Status

DEBRISIN ORBIT

Key statistics

Satellite CZ-6A DEB at a glance.

Uptime

970

Days in orbit

Revolutions

≈ 14.7

Per day

Orbit

SSO

Sun Synchronous Orbit

Inclination

98.6

Latest

Satellite identification and parameters

Extended collection of information and parameters for CZ-6A DEB.

Object identification

Identified? True

Debris? True

Object name: CZ-6A DEB

International designator: 2022-151QF

Object number (NORAD): 54894

Object ID (CCSDS): 54894

Country: PEOPLES REPUBLIC OF CHINA (PRC)

Current information (Y/N): Y

RCS size: SMALL

Orbital parameters

Period: 97.799 minutes

Inclination: 98.6376 deg

SMA: 7031.542 km

Apoapsis: 705.712 km

Periapsis: 601.102 km

RAAN: 239.0846 deg

Eccentricy: 0.0074386

Argument of periapsis: 239.3989 deg

Mean anomaly: 119.9865 deg

Mean motion: 14.72403706 rev/day

Mean motion (dot): 0.00008694 rev/day2

B* drag term: 0.0013216 1/REarth

Two-line elements (TLE)

Creation date: July 7, 2025, 6:34 p.m.

Reference frame: TEME

Reference center: EARTH

Epoch: July 7, 2025, 2 a.m. UTC

TLE line 0: 0 CZ-6A DEB

TLE line 1: 1 54894U 22151QF 25188.08375928 .00008694 00000-0 13216-2 0 9999

TLE line 2: 2 54894 98.6376 239.0846 0074386 239.3989 119.9865 14.72403706136850

Live tracking on map

Real-time ground track for satellite CZ-6A DEB.

In-orbit conjunctions

A list of the most updated potential collisions computed for object CZ-6A DEB.

Target Orbit TCA Probability of collision Miss distance Type
CZ-6A DEB LEO 2024-12-10 01:54:35 0.0003118319 199.0 (m) DEBRIS
NOAA 16 DEB SSO 2024-11-11 17:28:16 0.0001531604 525.0 (m) DEBRIS
COSMOS 1354 LEO 2024-06-05 11:37:21 0.0003105822 725.0 (m) PAYLOAD
DIADEME 1 LEO 2024-05-29 20:39:40 0.0001582331 178.0 (m) PAYLOAD

Associated space launch

Chinese satellite reported for atmospheric/ocean/environmental/spatial parameter research purposes, details TBD.

CZ-6A DEB was lifted into orbit during the mission ‘Long March 6A | Yunhai 3’, on board a Long March 6A space rocket.

The launch took place on Nov. 11, 2022, 10:52 p.m. from Launch Complex 9A.

For more information about the launch, click the button.

Launch to space Long March 6A | Yunhai 3
Long March 6A | Yunhai 3

Agency: N/A

Status: Launch Successful

Launch date: Nov. 11, 2022, 10:52 p.m. UTC

Rocket: Long March 6A

Launch pad: Launch Complex 9A

Location: Taiyuan Satellite Launch Center, People's Republic of China

...

Latest news about this satellite

There are no fresh news available about this satellite. Check back as we update our databases every day.


Newsletter sign-up

Weekly statistics, charts and insights to help you stay on top of the space industry.